Torna al catalogo

STARLINK-36207

AttivoComunicazioniVLEO
NORAD 67014·PAYLOAD·🇺🇸 United States

Lanciato Dec 10, 2025 da Vandenberg Space Force Base

Loading…

Prossimi Passaggi (prossime 24 ore)

TLE

AggiornatoSource: CelesTrak SupGP

Epoca: Sep 15, 2026, 03:37 UTC

1 67014C 25293M   26258.15118056  .00054699  00000+0  45835-2 0  2586
2 67014  70.0019 336.8301 0003572 267.7271 158.5783 14.98306174    11

Traccia STARLINK-36207 in tempo reale con AllMySat

Download on the App Store